| time (UTC) | temp F | wind direction | speed knots | gust knots | rain 1hr in | rain 24hr in | rain mn in | humidity % | barometer mb |
| 20260906201011 | 85 | 141 | 7.8 | 13.9 | 0.00 | 1.33 | 1.33 | 60 | 1015.2 |
| 20260906200516 | 85 | 139 | 6.1 | 13.9 | 0.00 | 1.33 | 1.33 | 60 | 1015.0 |
| 20260906200035 | 85 | 122 | 7.0 | 12.2 | 0.00 | 1.33 | 1.33 | 62 | 1015.3 |
| 20260906195514 | 85 | 160 | 5.2 | 13.0 | 0.00 | 1.33 | 1.33 | 60 | 1015.3 |
| 20260906195014 | 84 | 179 | 7.0 | 13.0 | 0.00 | 1.33 | 1.33 | 61 | 1015.4 |
| 20260906194531 | 84 | 157 | 6.1 | 16.5 | 0.00 | 1.33 | 1.33 | 61 | 1015.3 |
| 20260906194019 | 85 | 180 | 6.1 | 16.5 | 0.00 | 1.33 | 1.33 | 62 | 1015.3 |
| 20260906193511 | 85 | 146 | 5.2 | 13.9 | 0.00 | 1.33 | 1.33 | 61 | 1015.4 |
| 20260906193016 | 85 | 148 | 4.3 | 12.2 | 0.00 | 1.33 | 1.33 | 62 | 1015.5 |
| 20260906192516 | 85 | 165 | 6.1 | 13.0 | 0.00 | 1.33 | 1.33 | 61 | 1015.4 |
| 20260906192013 | 84 | 143 | 6.1 | 13.0 | 0.00 | 1.33 | 1.33 | 62 | 1015.4 |
| 20260906191529 | 84 | 152 | 5.2 | 12.2 | 0.00 | 1.33 | 1.33 | 63 | 1015.4 |
| 20260906191017 | 84 | 157 | 7.0 | 13.0 | 0.00 | 1.33 | 1.33 | 63 | 1015.5 |
| 20260906190517 | 84 | 153 | 7.0 | 13.9 | 0.00 | 1.33 | 1.33 | 64 | 1015.5 |
| 20260906190035 | 84 | 163 | 4.3 | 14.8 | 0.00 | 1.33 | 1.33 | 64 | 1015.4 |
| 20260906185510 | 84 | 149 | 8.7 | 13.9 | 0.00 | 1.33 | 1.33 | 62 | 1015.4 |
| 20260906185010 | 83 | 179 | 8.7 | 13.9 | 0.00 | 1.33 | 1.33 | 63 | 1015.4 |
| 20260906184523 | 83 | 169 | 7.8 | 13.9 | 0.00 | 1.33 | 1.33 | 63 | 1015.4 |
| 20260906184014 | 83 | 112 | 7.8 | 13.9 | 0.00 | 1.33 | 1.33 | 63 | 1015.4 |
| 20260906183522 | 83 | 110 | 7.8 | 13.0 | 0.00 | 1.33 | 1.33 | 63 | 1015.4 |
| 20260906183038 | 83 | 132 | 7.0 | 15.6 | 0.00 | 1.33 | 1.33 | 63 | 1015.6 |
| 20260906182522 | 83 | 149 | 7.0 | 15.6 | 0.00 | 1.33 | 1.33 | 65 | 1015.6 |
| 20260906182021 | 83 | 132 | 7.0 | 13.0 | 0.00 | 1.33 | 1.33 | 65 | 1015.6 |
| 20260906181516 | 82 | 116 | 5.2 | 12.2 | 0.00 | 1.33 | 1.33 | 67 | 1015.7 |
| 20260906181015 | 82 | 116 | 6.1 | 14.8 | 0.00 | 1.33 | 1.33 | 67 | 1015.7 |
| 20260906180515 | 82 | 132 | 6.1 | 14.8 | 0.00 | 1.33 | 1.33 | 65 | 1015.9 |
| 20260906180038 | 82 | 164 | 6.1 | 14.8 | 0.00 | 1.33 | 1.33 | 67 | 1016.0 |
| 20260906175515 | 81 | 136 | 7.0 | 14.8 | 0.00 | 1.33 | 1.33 | 66 | 1016.0 |
| 20260906175020 | 81 | 107 | 7.0 | 14.8 | 0.00 | 1.33 | 1.33 | 67 | 1016.0 |
| 20260906174537 | 81 | 172 | 6.1 | 14.8 | 0.00 | 1.33 | 1.33 | 68 | 1016.1 |
| 20260906174020 | 80 | 156 | 7.8 | 14.8 | 0.00 | 1.33 | 1.33 | 67 | 1016.1 |
| 20260906173512 | 80 | 164 | 7.0 | 13.0 | 0.00 | 1.33 | 1.33 | 68 | 1016.2 |
| 20260906173023 | 80 | 159 | 6.1 | 18.2 | 0.00 | 1.33 | 1.33 | 69 | 1016.1 |
| 20260906172514 | 80 | 143 | 8.7 | 18.2 | 0.00 | 1.33 | 1.33 | 67 | 1016.2 |
| 20260906172015 | 79 | 130 | 7.8 | 14.8 | 0.00 | 1.33 | 1.33 | 69 | 1016.4 |
| 20260906171529 | 79 | 146 | 7.0 | 13.0 | 0.00 | 1.33 | 1.33 | 69 | 1016.5 |
| 20260906171017 | 79 | 158 | 7.8 | 14.8 | 0.00 | 1.33 | 1.33 | 72 | 1016.5 |
| 20260906170523 | 78 | 181 | 7.8 | 14.8 | 0.00 | 1.33 | 1.33 | 70 | 1016.6 |
| 20260906170033 | 78 | 126 | 9.6 | 13.9 | 0.00 | 1.33 | 1.33 | 69 | 1016.7 |
| 20260906165510 | 78 | 148 | 7.0 | 13.0 | 0.00 | 1.33 | 1.33 | 70 | 1016.7 |
| 20260906165021 | 78 | 120 | 8.7 | 13.0 | 0.00 | 1.33 | 1.33 | 69 | 1016.6 |
| 20260906164537 | 78 | 165 | 7.8 | 13.0 | 0.00 | 1.33 | 1.33 | 71 | 1016.8 |
| 20260906164014 | 77 | 147 | 7.8 | 13.0 | 0.00 | 1.33 | 1.33 | 72 | 1016.8 |
| 20260906163518 | 76 | 157 | 7.0 | 12.2 | 0.00 | 1.33 | 1.33 | 73 | 1016.8 |
| 20260906163037 | 76 | 153 | 7.0 | 13.0 | 0.00 | 1.33 | 1.33 | 74 | 1017.1 |
| 20260906162516 | 76 | 143 | 6.1 | 13.0 | 0.00 | 1.33 | 1.33 | 73 | 1017.0 |
| 20260906162018 | 76 | 141 | 7.8 | 11.3 | 0.00 | 1.33 | 1.33 | 75 | 1017.1 |
| 20260906161524 | 75 | 134 | 6.1 | 11.3 | 0.00 | 1.33 | 1.33 | 77 | 1017.2 |
| 20260906161015 | 75 | 165 | 7.0 | 12.2 | 0.00 | 1.33 | 1.33 | 78 | 1017.3 |
| 20260906160513 | 73 | 132 | 7.0 | 12.2 | 0.00 | 1.33 | 1.33 | 81 | 1017.2 |
| 20260906160045 | 73 | 137 | 5.2 | 10.4 | 0.00 | 1.33 | 1.33 | 81 | 1017.2 |
| 20260906155517 | 74 | 119 | 5.2 | 10.4 | 0.00 | 1.33 | 1.33 | 81 | 1017.1 |
| 20260906155015 | 73 | 131 | 4.3 | 7.0 | 0.00 | 1.33 | 1.33 | 83 | 1017.2 |
| 20260906154536 | 71 | 128 | 3.5 | 9.6 | 0.00 | 1.33 | 1.33 | 85 | 1017.3 |
| 20260906154020 | 71 | 142 | 3.5 | 9.6 | 0.00 | 1.33 | 1.33 | 85 | 1017.4 |
| 20260906153512 | 71 | 148 | 4.3 | 9.6 | 0.00 | 1.33 | 1.33 | 84 | 1017.6 |
| 20260906153034 | 70 | 121 | 3.5 | 7.0 | 0.00 | 1.33 | 1.33 | 86 | 1017.6 |
| 20260906152517 | 70 | 115 | 2.6 | 7.8 | 0.00 | 1.33 | 1.33 | 86 | 1017.6 |
| 20260906152020 | 70 | 129 | 3.5 | 9.6 | 0.00 | 1.33 | 1.33 | 86 | 1017.7 |
| 20260906151531 | 70 | 122 | 3.5 | 9.6 | 0.00 | 1.33 | 1.33 | 87 | 1017.7 |
| 20260906151009 | 70 | 107 | 2.6 | 7.8 | 0.00 | 1.33 | 1.33 | 87 | 1017.7 |
| 20260906150513 | 69 | 101 | 4.3 | 8.7 | 0.00 | 1.33 | 1.33 | 88 | 1017.9 |
| 20260906150040 | 69 | 94 | 5.2 | 8.7 | 0.00 | 1.33 | 1.33 | 89 | 1018.1 |
| 20260906145514 | 69 | 115 | 4.3 | 7.8 | 0.00 | 1.33 | 1.33 | 89 | 1018.4 |
| 20260906145014 | 69 | 96 | 4.3 | 7.8 | 0.00 | 1.33 | 1.33 | 89 | 1018.4 |
| 20260906144535 | 69 | 97 | 4.3 | 7.0 | 0.00 | 1.33 | 1.33 | 90 | 1018.4 |
| 20260906144019 | 68 | 36 | 4.3 | 7.8 | 0.00 | 1.33 | 1.33 | 91 | 1018.6 |
| 20260906143518 | 68 | 91 | 3.5 | 7.8 | 0.00 | 1.33 | 1.33 | 91 | 1018.8 |
| 20260906143022 | 68 | 66 | 3.5 | 8.7 | 0.00 | 1.33 | 1.33 | 91 | 1018.9 |
| 20260906142508 | 68 | 61 | 3.5 | 10.4 | 0.00 | 1.33 | 1.33 | 92 | 1018.9 |
| 20260906142008 | 69 | 28 | 3.5 | 10.4 | 0.00 | 1.33 | 1.33 | 92 | 1018.7 |
| 20260906141533 | 69 | 36 | 3.5 | 9.6 | 0.00 | 1.33 | 1.33 | 92 | 1018.5 |
| 20260906141014 | 69 | 61 | 4.3 | 10.4 | 0.00 | 1.33 | 1.33 | 92 | 1018.3 |
| 20260906140514 | 69 | 352 | 3.5 | 10.4 | 0.00 | 1.33 | 1.33 | 92 | 1018.3 |
| 20260906140039 | 69 | 33 | 5.2 | 11.3 | 0.00 | 1.33 | 1.33 | 92 | 1018.3 |
| 20260906135516 | 69 | 82 | 5.2 | 11.3 | 0.00 | 1.33 | 1.33 | 91 | 1018.3 |
| 20260906135008 | 69 | 68 | 5.2 | 9.6 | 0.00 | 1.33 | 1.33 | 91 | 1018.3 |
| 20260906134518 | 69 | 15 | 3.5 | 8.7 | 0.04 | 1.33 | 1.33 | 91 | 1018.1 |
| 20260906134012 | 69 | 71 | 3.5 | 6.1 | 0.05 | 1.33 | 1.33 | 91 | 1018.1 |
| 20260906133520 | 69 | 57 | 3.5 | 6.1 | 0.05 | 1.33 | 1.33 | 91 | 1017.9 |
| 20260906133030 | 69 | 51 | 2.6 | 4.3 | 0.05 | 1.33 | 1.33 | 91 | 1017.5 |
| 20260906132517 | 69 | 80 | 1.7 | 4.3 | 0.05 | 1.33 | 1.33 | 92 | 1017.5 |
| 20260906132022 | 69 | 42 | 1.7 | 5.2 | 0.05 | 1.33 | 1.33 | 92 | 1017.5 |
| 20260906131531 | 68 | 41 | 1.7 | 5.2 | 0.05 | 1.33 | 1.33 | 92 | 1017.6 |
| 20260906131013 | 68 | 52 | 2.6 | 5.2 | 0.06 | 1.33 | 1.33 | 1017.5 | |
| 20260906130511 | 68 | 51 | 1.7 | 6.1 | 0.09 | 1.33 | 1.33 | 92 | 1017.3 |
| 20260906130036 | 68 | 51 | 2.6 | 7.8 | 0.11 | 1.33 | 1.33 | 92 | 1017.1 |
| 20260906125519 | 68 | 103 | 4.3 | 7.8 | 0.16 | 1.33 | 1.33 | 92 | 1017.0 |
| 20260906125017 | 68 | 96 | 4.3 | 7.8 | 0.23 | 1.33 | 1.33 | 92 | 1016.8 |
| 20260906124530 | 68 | 86 | 4.3 | 8.7 | 0.26 | 1.29 | 1.29 | 92 | 1016.7 |
| 20260906124014 | 68 | 102 | 4.3 | 8.7 | 0.34 | 1.28 | 1.28 | 91 | 1016.8 |
| 20260906123520 | 68 | 96 | 4.3 | 9.6 | 0.37 | 1.28 | 1.28 | 91 | 1016.6 |
| 20260906123034 | 68 | 86 | 4.3 | 11.3 | 0.38 | 1.28 | 1.28 | 91 | 1016.6 |
| 20260906122512 | 68 | 69 | 7.0 | 12.2 | 0.40 | 1.28 | 1.28 | 91 | 1016.1 |
| 20260906122014 | 68 | 74 | 6.1 | 12.2 | 0.44 | 1.28 | 1.28 | 90 | 1016.2 |
| 20260906121527 | 69 | 108 | 6.1 | 11.3 | 0.54 | 1.28 | 1.28 | 90 | 1016.3 |
| 20260906121014 | 69 | 117 | 7.0 | 11.3 | 0.61 | 1.27 | 1.27 | 89 | 1016.4 |
| 20260906120518 | 69 | 130 | 4.3 | 7.0 | 0.64 | 1.24 | 1.24 | 86 | 1016.6 |
| 20260906120041 | 69 | 136 | 3.5 | 5.2 | 0.68 | 1.22 | 1.22 | 88 | 1017.2 |
| 20260906115515 | 69 | 168 | 1.7 | 3.5 | 0.70 | 1.16 | 1.16 | 90 | 1017.5 |
| 20260906115016 | 69 | 167 | 0.9 | 3.5 | 0.66 | 1.10 | 1.10 | 91 | 1017.5 |
| 20260906114533 | 69 | 98 | 0.9 | 8.7 | 0.61 | 1.03 | 1.03 | 91 | 1017.4 |
| 20260906114016 | 68 | 346 | 3.5 | 8.7 | 0.55 | 0.94 | 0.94 | 91 | 1017.5 |
| 20260906113517 | 68 | 360 | 4.3 | 9.6 | 0.55 | 0.91 | 0.91 | 91 | 1017.7 |
| 20260906113030 | 68 | 15 | 3.5 | 9.6 | 0.55 | 0.90 | 0.90 | 91 | 1017.7 |
| 20260906112519 | 68 | 55 | 4.3 | 11.3 | 0.55 | 0.88 | 0.88 | 91 | 1018.1 |
| 20260906112018 | 69 | 33 | 3.5 | 11.3 | 0.52 | 0.84 | 0.84 | 91 | 1018.2 |
| 20260906111534 | 69 | 51 | 4.3 | 7.8 | 0.45 | 0.74 | 0.74 | 91 | 1018.1 |
| 20260906111019 | 69 | 26 | 1.7 | 8.7 | 0.46 | 0.66 | 0.66 | 91 | 1018.1 |
| 20260906110513 | 69 | 51 | 2.6 | 8.7 | 0.52 | 0.60 | 0.60 | 91 | 1017.9 |
| 20260906110037 | 69 | 360 | 4.3 | 7.8 | 0.52 | 0.54 | 0.54 | 91 | 1017.3 |
| 20260906105515 | 69 | 40 | 2.6 | 7.8 | 0.47 | 0.47 | 0.47 | 91 | 1017.6 |
| 20260906105017 | 69 | 10 | 2.6 | 5.2 | 0.44 | 0.44 | 0.44 | 90 | 1017.9 |
| 20260906104529 | 69 | 50 | 1.7 | 7.8 | 0.42 | 0.42 | 0.42 | 90 | 1018.0 |
| 20260906104014 | 69 | 345 | 2.6 | 10.4 | 0.39 | 0.39 | 0.39 | 90 | 1017.6 |
| 20260906103516 | 69 | 346 | 3.5 | 11.3 | 0.36 | 0.36 | 0.36 | 90 | 1017.4 |
| 20260906103033 | 69 | 5 | 4.3 | 12.2 | 0.35 | 0.35 | 0.35 | 89 | 1017.1 |
| 20260906102514 | 69 | 14 | 5.2 | 12.2 | 0.33 | 0.33 | 0.33 | 89 | 1016.7 |
| 20260906102019 | 69 | 360 | 5.2 | 9.6 | 0.31 | 0.31 | 0.31 | 89 | 1016.9 |
| 20260906101533 | 69 | 55 | 3.5 | 9.6 | 0.29 | 0.29 | 0.29 | 89 | 1016.5 |
| 20260906101018 | 69 | 9 | 2.6 | 9.6 | 0.20 | 0.20 | 0.20 | 88 | 1016.3 |
| 20260906100519 | 70 | 344 | 3.5 | 11.3 | 0.08 | 0.08 | 0.08 | 86 | 1016.7 |
| 20260906100032 | 71 | 40 | 4.3 | 11.3 | 0.02 | 0.02 | 0.02 | 83 | 1016.5 |
| 20260906095518 | 72 | 13 | 5.2 | 13.0 | 0.00 | 0.00 | 0.00 | 79 | 1016.3 |
| 20260906095021 | 72 | 13 | 6.1 | 13.0 | 0.00 | 0.00 | 0.00 | 77 | 1016.2 |
| 20260906094531 | 73 | 360 | 4.3 | 12.2 | 0.00 | 0.00 | 0.00 | 75 | 1016.1 |
| 20260906094017 | 74 | 342 | 7.0 | 13.9 | 0.00 | 0.00 | 0.00 | 72 | 1015.8 |
| 20260906093516 | 75 | 9 | 6.1 | 14.8 | 0.00 | 0.00 | 0.00 | 70 | 1016.1 |
| 20260906093008 | 75 | 346 | 7.0 | 14.8 | 0.00 | 0.00 | 0.00 | 69 | 1015.9 |
| 20260906092503 | 75 | 11 | 7.0 | 11.3 | 0.00 | 0.00 | 0.00 | 70 | 1015.6 |
| 20260906092003 | 74 | 325 | 3.5 | 9.6 | 0.00 | 0.00 | 0.00 | 71 | 1015.6 |
| 20260906091503 | 74 | 322 | 2.6 | 8.7 | 0.00 | 0.00 | 0.00 | 73 | 1015.5 |
| 20260906091003 | 73 | 332 | 2.6 | 7.0 | 0.00 | 0.00 | 0.00 | 73 | 1015.3 |
| 20260906090506 | 73 | 132 | 0.0 | 2.6 | 0.00 | 0.00 | 0.00 | 73 | 1014.6 |
| 20260906090004 | 73 | 133 | 1.7 | 2.6 | 0.00 | 0.00 | 0.00 | 72 | 1014.4 |
| 20260906085504 | 73 | 152 | 0.9 | 2.6 | 0.00 | 0.00 | 0.00 | 72 | 1014.2 |
| 20260906085003 | 73 | 148 | 1.7 | 2.6 | 0.00 | 0.00 | 0.00 | 72 | 1014.3 |
| 20260906084510 | 73 | 136 | 0.9 | 2.6 | 0.00 | 0.00 | 0.00 | 72 | 1014.0 |
| 20260906084007 | 73 | 160 | 0.9 | 2.6 | 0.00 | 0.00 | 0.00 | 72 | 1014.1 |
| 20260906083504 | 73 | 153 | 0.9 | 3.5 | 0.00 | 0.00 | 0.00 | 73 | 1014.1 |
| 20260906083006 | 73 | 132 | 1.7 | 4.3 | 0.00 | 0.00 | 0.00 | 73 | 1013.9 |
| 20260906082503 | 73 | 127 | 2.6 | 4.3 | 0.00 | 0.00 | 0.00 | 72 | 1013.9 |
| 20260906082009 | 73 | 135 | 1.7 | 3.5 | 0.00 | 0.00 | 0.00 | 72 | 1014.0 |
| 20260906081519 | 74 | 141 | 1.7 | 5.2 | 0.00 | 0.00 | 0.00 | 71 | 1014.0 |
| 20260906081007 | 74 | 156 | 2.6 | 5.2 | 0.00 | 0.00 | 0.00 | 71 | 1014.0 |
| 20260906080508 | 74 | 161 | 1.7 | 4.3 | 0.00 | 0.00 | 0.00 | 71 | 1014.0 |
| 20260906080007 | 74 | 137 | 1.7 | 3.5 | 0.00 | 0.00 | 0.00 | 72 | 1014.0 |
| 20260906075503 | 74 | 158 | 2.6 | 3.5 | 0.00 | 0.00 | 0.00 | 71 | 1014.2 |
| 20260906075007 | 74 | 140 | 1.7 | 3.5 | 0.00 | 0.00 | 0.00 | 71 | 1014.3 |
| 20260906074504 | 74 | 157 | 0.9 | 3.5 | 0.00 | 0.00 | 0.00 | 72 | 1014.4 |
| 20260906074003 | 73 | 148 | 1.7 | 3.5 | 0.00 | 0.00 | 0.00 | 72 | 1014.5 |
| 20260906073506 | 74 | 161 | 1.7 | 2.6 | 0.00 | 0.00 | 0.00 | 71 | 1014.6 |
| 20260906073010 | 74 | 133 | 1.7 | 4.3 | 0.00 | 0.00 | 0.00 | 71 | 1014.5 |
| 20260906072504 | 74 | 132 | 1.7 | 4.3 | 0.00 | 0.00 | 0.00 | 70 | 1014.7 |
| 20260906072005 | 74 | 158 | 1.7 | 3.5 | 0.00 | 0.00 | 0.00 | 70 | 1014.7 |
| 20260906071505 | 75 | 144 | 1.7 | 4.3 | 0.00 | 0.00 | 0.00 | 69 | 1014.7 |
| 20260906071006 | 75 | 148 | 1.7 | 4.3 | 0.00 | 0.00 | 0.00 | 69 | 1014.7 |
| 20260906070505 | 75 | 159 | 0.9 | 4.3 | 0.00 | 0.00 | 0.00 | 69 | 1014.7 |
| 20260906070003 | 75 | 148 | 1.7 | 4.3 | 0.00 | 0.00 | 0.00 | 68 | 1014.8 |
| 20260906065507 | 75 | 155 | 2.6 | 4.3 | 0.00 | 0.00 | 0.00 | 68 | 1014.7 |
| 20260906065010 | 75 | 122 | 1.7 | 4.3 | 0.00 | 0.00 | 0.00 | 68 | 1014.7 |
| 20260906064509 | 75 | 140 | 1.7 | 3.5 | 0.00 | 0.00 | 0.00 | 68 | 1014.8 |
| 20260906064007 | 75 | 167 | 0.9 | 3.5 | 0.00 | 0.00 | 0.00 | 68 | 1014.8 |
| 20260906063503 | 75 | 146 | 1.7 | 3.5 | 0.00 | 0.00 | 0.00 | 69 | 1014.9 |
| 20260906063010 | 75 | 138 | 0.9 | 2.6 | 0.00 | 0.00 | 0.00 | 69 | 1014.9 |
| 20260906062508 | 75 | 153 | 1.7 | 4.3 | 0.00 | 0.00 | 0.00 | 69 | 1014.8 |
| 20260906062006 | 75 | 124 | 1.7 | 4.3 | 0.00 | 0.00 | 0.00 | 69 | 1014.7 |
| 20260906061514 | 75 | 175 | 1.7 | 4.3 | 0.00 | 0.00 | 0.00 | 69 | 1014.6 |
| 20260906061005 | 75 | 143 | 1.7 | 3.5 | 0.00 | 0.00 | 0.00 | 68 | 1014.7 |
| 20260906060506 | 75 | 146 | 1.7 | 2.6 | 0.00 | 0.00 | 0.00 | 68 | 1014.7 |
| 20260906060008 | 75 | 134 | 1.7 | 3.5 | 0.00 | 0.00 | 0.00 | 68 | 1014.7 |
| 20260906055506 | 75 | 142 | 0.9 | 4.3 | 0.00 | 0.00 | 0.00 | 68 | 1014.6 |
| 20260906055006 | 75 | 156 | 1.7 | 4.3 | 0.00 | 0.00 | 0.00 | 68 | 1014.5 |
| 20260906054505 | 75 | 161 | 0.9 | 3.5 | 0.00 | 0.00 | 0.00 | 68 | 1014.5 |
| 20260906054004 | 75 | 139 | 1.7 | 3.5 | 0.00 | 0.00 | 0.00 | 68 | 1014.5 |
| 20260906053504 | 75 | 181 | 1.7 | 3.5 | 0.00 | 0.00 | 0.00 | 68 | 1014.5 |
| 20260906053011 | 76 | 157 | 0.9 | 2.6 | 0.00 | 0.00 | 0.00 | 68 | 1014.6 |
| 20260906052509 | 76 | 151 | 1.7 | 2.6 | 0.00 | 0.00 | 0.00 | 67 | 1014.6 |
| 20260906052008 | 76 | 146 | 1.7 | 2.6 | 0.00 | 0.00 | 0.00 | 68 | 1014.7 |
| 20260906051510 | 76 | 157 | 0.9 | 2.6 | 0.00 | 0.00 | 0.00 | 68 | 1014.6 |
| 20260906051007 | 76 | 142 | 0.9 | 2.6 | 0.00 | 0.00 | 0.00 | 68 | 1014.7 |
| 20260906050505 | 76 | 163 | 0.0 | 1.7 | 0.00 | 0.00 | 0.00 | 68 | 1014.7 |
| 20260906050010 | 76 | 157 | 0.9 | 3.5 | 0.00 | 0.00 | 0.00 | 67 | 1014.7 |
| 20260906045510 | 76 | 140 | 1.7 | 3.5 | 0.00 | 0.00 | 0.00 | 68 | 1014.5 |
| 20260906045007 | 75 | 177 | 0.9 | 3.5 | 0.00 | 0.00 | 0.00 | 68 | 1014.5 |
| 20260906044515 | 75 | 138 | 0.9 | 2.6 | 0.00 | 0.00 | 0.00 | 68 | 1014.5 |
| 20260906044015 | 76 | 155 | 0.9 | 2.6 | 0.00 | 0.00 | 0.00 | 67 | 1014.5 |
| 20260906043513 | 76 | 133 | 1.7 | 3.5 | 0.00 | 0.00 | 0.00 | 66 | 1014.6 |
| 20260906043012 | 77 | 163 | 1.7 | 3.5 | 0.00 | 0.00 | 0.00 | 66 | 1014.5 |
| 20260906042503 | 77 | 147 | 0.9 | 3.5 | 0.00 | 0.00 | 0.00 | 66 | 1014.5 |
| 20260906042008 | 77 | 161 | 0.9 | 3.5 | 0.00 | 0.00 | 0.00 | 66 | 1014.7 |
| 20260906041510 | 77 | 153 | 0.9 | 3.5 | 0.00 | 0.00 | 0.00 | 66 | 1014.7 |
| 20260906041008 | 77 | 146 | 1.7 | 3.5 | 0.00 | 0.00 | 0.00 | 65 | 1014.8 |
| 20260906040509 | 77 | 143 | 0.9 | 1.7 | 0.00 | 0.00 | 0.00 | 65 | 1014.9 |
| 20260906040012 | 77 | 156 | 0.0 | 2.6 | 0.00 | 0.00 | 0.00 | 65 | 1014.8 |
| 20260906035508 | 78 | 153 | 0.9 | 3.5 | 0.00 | 0.00 | 0.00 | 64 | 1014.8 |
| 20260906035011 | 78 | 142 | 1.7 | 3.5 | 0.00 | 0.00 | 0.00 | 63 | 1014.6 |
| 20260906034508 | 78 | 157 | 0.9 | 3.5 | 0.00 | 0.00 | 0.00 | 63 | 1014.5 |
| 20260906034006 | 78 | 150 | 0.9 | 4.3 | 0.00 | 0.00 | 0.00 | 63 | 1014.5 |
| 20260906033508 | 79 | 153 | 1.7 | 4.3 | 0.00 | 0.00 | 0.00 | 62 | 1014.5 |
| 20260906033016 | 79 | 167 | 1.7 | 4.3 | 0.00 | 0.00 | 0.00 | 61 | 1014.5 |
| 20260906032510 | 79 | 165 | 1.7 | 4.3 | 0.00 | 0.00 | 0.00 | 62 | 1014.5 |
| 20260906032012 | 79 | 147 | 0.9 | 2.6 | 0.00 | 0.00 | 0.00 | 62 | 1014.5 |
| 20260906031531 | 79 | 149 | 1.7 | 2.6 | 0.00 | 0.00 | 0.00 | 61 | 1014.5 |
| 20260906031010 | 80 | 135 | 0.9 | 2.6 | 0.00 | 0.00 | 0.00 | 60 | 1014.4 |
| 20260906030509 | 80 | 147 | 1.7 | 3.5 | 0.00 | 0.00 | 0.00 | 60 | 1014.3 |
| 20260906030009 | 80 | 156 | 0.9 | 3.5 | 0.00 | 0.00 | 0.00 | 60 | 1014.3 |
| 20260906025509 | 80 | 142 | 0.9 | 3.5 | 0.00 | 0.00 | 0.00 | 60 | 1014.2 |
| 20260906025010 | 80 | 150 | 0.9 | 1.7 | 0.00 | 0.00 | 0.00 | 60 | 1014.2 |
| 20260906024522 | 80 | 146 | 0.0 | 2.6 | 0.00 | 0.00 | 0.00 | 60 | 1014.0 |
| 20260906024012 | 81 | 144 | 0.9 | 4.3 | 0.00 | 0.00 | 0.00 | 59 | 1013.8 |
| 20260906023510 | 81 | 200 | 0.0 | 4.3 | 0.00 | 0.00 | 0.00 | 59 | 1013.8 |
| 20260906023019 | 81 | 193 | 0.9 | 4.3 | 0.00 | 0.00 | 0.00 | 59 | 1013.8 |
| 20260906022508 | 81 | 188 | 0.9 | 4.3 | 0.00 | 0.00 | 0.00 | 58 | 1013.8 |
| 20260906022008 | 81 | 144 | 0.9 | 4.3 | 0.00 | 0.00 | 0.00 | 58 | 1013.7 |
| 20260906021516 | 82 | 139 | 2.6 | 5.2 | 0.00 | 0.00 | 0.00 | 57 | 1013.6 |
| 20260906021009 | 82 | 143 | 2.6 | 5.2 | 0.00 | 0.00 | 0.00 | 57 | 1013.6 |
| 20260906020512 | 82 | 126 | 2.6 | 5.2 | 0.00 | 0.00 | 0.00 | 56 | 1013.5 |
| 20260906020021 | 83 | 136 | 1.7 | 5.2 | 0.00 | 0.00 | 0.00 | 56 | 1013.5 |
| 20260906015515 | 83 | 180 | 0.9 | 3.5 | 0.00 | 0.00 | 0.00 | 56 | 1013.4 |
| 20260906015013 | 83 | 184 | 0.0 | 4.3 | 0.00 | 0.00 | 0.00 | 55 | 1013.4 |
| 20260906014514 | 84 | 191 | 0.9 | 6.1 | 0.00 | 0.00 | 0.00 | 54 | 1013.5 |
| 20260906014010 | 85 | 163 | 0.9 | 7.0 | 0.00 | 0.00 | 0.00 | 53 | 1013.5 |
| 20260906013507 | 85 | 152 | 1.7 | 7.8 | 0.00 | 0.00 | 0.00 | 52 | 1013.6 |
| 20260906013016 | 86 | 178 | 3.5 | 9.6 | 0.00 | 0.00 | 0.00 | 51 | 1013.6 |
| 20260906012512 | 86 | 127 | 4.3 | 9.6 | 0.00 | 0.00 | 0.00 | 50 | 1013.6 |
| 20260906012013 | 87 | 176 | 2.6 | 10.4 | 0.00 | 0.00 | 0.00 | 49 | 1013.6 |
| 20260906011518 | 87 | 169 | 6.1 | 10.4 | 0.00 | 0.00 | 0.00 | 48 | 1013.6 |
| 20260906011019 | 88 | 157 | 4.3 | 9.6 | 0.00 | 0.00 | 0.00 | 48 | 1013.6 |
| 20260906010508 | 88 | 146 | 2.6 | 8.7 | 0.00 | 0.00 | 0.00 | 48 | 1013.6 |
| 20260906010016 | 88 | 133 | 3.5 | 8.7 | 0.00 | 0.00 | 0.00 | 47 | 1013.4 |
| 20260906005514 | 89 | 169 | 4.3 | 10.4 | 0.00 | 0.00 | 0.00 | 46 | 1013.4 |
| 20260906005012 | 89 | 152 | 5.2 | 13.0 | 0.00 | 0.00 | 0.00 | 46 | 1013.2 |
| 20260906004520 | 90 | 161 | 4.3 | 12.2 | 0.00 | 0.00 | 0.00 | 45 | 1013.2 |
| 20260906004013 | 90 | 153 | 7.0 | 11.3 | 0.00 | 0.00 | 0.00 | 45 | 1012.9 |
| 20260906003514 | 91 | 150 | 3.5 | 11.3 | 0.00 | 0.00 | 0.00 | 44 | 1012.9 |
| 20260906003023 | 91 | 163 | 6.1 | 11.3 | 0.00 | 0.00 | 0.00 | 44 | 1012.8 |
| 20260906002508 | 92 | 121 | 3.5 | 8.7 | 0.00 | 0.00 | 0.00 | 43 | 1012.9 |
| 20260906002009 | 92 | 121 | 5.2 | 8.7 | 0.00 | 0.00 | 0.00 | 41 | 1012.9 |
| 20260906001519 | 92 | 134 | 3.5 | 4.3 | 0.00 | 0.00 | 0.00 | 38 | 1012.7 |
| 20260906001013 | 93 | 148 | 2.6 | 8.7 | 0.00 | 0.00 | 0.00 | 37 | 1012.7 |
| 20260906000512 | 93 | 155 | 2.6 | 8.7 | 0.00 | 0.00 | 0.00 | 36 | 1012.7 |
| 20260906000025 | 93 | 151 | 3.5 | 7.8 | 0.00 | 0.00 | 0.00 | 36 | 1012.7 |
| 20260905235510 | 93 | 164 | 2.6 | 7.0 | 0.00 | 0.00 | 0.00 | 36 | 1012.7 |
| 20260905235018 | 93 | 146 | 2.6 | 7.0 | 0.00 | 0.00 | 0.00 | 36 | 1012.6 |
| 20260905234513 | 94 | 163 | 2.6 | 7.0 | 0.00 | 0.00 | 0.00 | 36 | 1012.7 |
| 20260905234017 | 94 | 150 | 3.5 | 9.6 | 0.00 | 0.00 | 0.00 | 35 | 1012.8 |
| 20260905233512 | 94 | 124 | 4.3 | 10.4 | 0.00 | 0.00 | 0.00 | 36 | 1012.7 |
| 20260905233030 | 94 | 146 | 5.2 | 10.4 | 0.00 | 0.00 | 0.00 | 36 | 1012.6 |
| 20260905232513 | 95 | 149 | 4.3 | 10.4 | 0.00 | 0.00 | 0.00 | 36 | 1012.4 |
| 20260905232016 | 95 | 142 | 7.0 | 10.4 | 0.00 | 0.00 | 0.00 | 35 | 1012.6 |
| 20260905231521 | 96 | 127 | 5.2 | 9.6 | 0.00 | 0.00 | 0.00 | 35 | 1012.5 |
| 20260905231012 | 96 | 179 | 3.5 | 11.3 | 0.00 | 0.00 | 0.00 | 36 | 1012.5 |
| 20260905230514 | 96 | 126 | 5.2 | 11.3 | 0.00 | 0.00 | 0.00 | 36 | 1012.4 |
| 20260905230021 | 96 | 126 | 5.2 | 9.6 | 0.00 | 0.00 | 0.00 | 36 | 1012.4 |
| 20260905225512 | 96 | 125 | 5.2 | 7.8 | 0.00 | 0.00 | 0.00 | 36 | 1012.4 |
| 20260905225014 | 96 | 119 | 4.3 | 9.6 | 0.00 | 0.00 | 0.00 | 37 | 1012.4 |
| 20260905224523 | 96 | 132 | 4.3 | 11.3 | 0.00 | 0.00 | 0.00 | 36 | 1012.4 |
| 20260905224014 | 96 | 111 | 4.3 | 11.3 | 0.00 | 0.00 | 0.00 | 37 | 1012.3 |
| 20260905223513 | 96 | 146 | 6.1 | 11.3 | 0.00 | 0.00 | 0.00 | 34 | 1012.5 |
| 20260905223034 | 97 | 128 | 4.3 | 11.3 | 0.00 | 0.00 | 0.00 | 35 | 1012.5 |
| 20260905222510 | 96 | 145 | 6.1 | 10.4 | 0.00 | 0.00 | 0.00 | 34 | 1012.5 |
| 20260905222014 | 96 | 142 | 5.2 | 10.4 | 0.00 | 0.00 | 0.00 | 34 | 1012.5 |
| 20260905221538 | 97 | 127 | 6.1 | 11.3 | 0.00 | 0.00 | 0.00 | 36 | 1012.4 |
| 20260905221012 | 97 | 125 | 5.2 | 13.9 | 0.00 | 0.00 | 0.00 | 34 | 1012.5 |
| 20260905220516 | 97 | 109 | 8.7 | 13.9 | 0.00 | 0.00 | 0.00 | 35 | 1012.4 |
| 20260905220028 | 96 | 171 | 4.3 | 10.4 | 0.00 | 0.00 | 0.00 | 36 | 1012.3 |
| 20260905215522 | 97 | 55 | 2.6 | 11.3 | 0.00 | 0.00 | 0.00 | 37 | 1012.5 |
| 20260905215015 | 97 | 130 | 6.1 | 11.3 | 0.00 | 0.00 | 0.00 | 36 | 1012.7 |
| 20260905214517 | 97 | 101 | 4.3 | 11.3 | 0.00 | 0.00 | 0.00 | 37 | 1012.8 |
| 20260905214012 | 96 | 132 | 2.6 | 13.0 | 0.00 | 0.00 | 0.00 | 37 | 1013.0 |
| 20260905213512 | 96 | 167 | 7.0 | 13.0 | 0.00 | 0.00 | 0.00 | 36 | 1013.0 |
| 20260905213025 | 97 | 135 | 4.3 | 10.4 | 0.00 | 0.00 | 0.00 | 37 | 1013.1 |
| 20260905212513 | 97 | 104 | 7.0 | 10.4 | 0.00 | 0.00 | 0.00 | 36 | 1013.1 |
| 20260905212002 | 96 | 96 | 5.2 | 10.4 | 0.00 | 0.00 | 0.00 | 37 | 1013.2 |
| 20260905211534 | 97 | 134 | 7.0 | 12.2 | 0.00 | 0.00 | 0.00 | 37 | 1013.3 |
| 20260905211010 | 97 | 153 | 7.0 | 12.2 | 0.00 | 0.00 | 0.00 | 35 | 1013.3 |
| 20260905210510 | 98 | 107 | 5.2 | 12.2 | 0.00 | 0.00 | 0.00 | 36 | 1013.3 |
| 20260905210023 | 97 | 132 | 7.0 | 12.2 | 0.00 | 0.00 | 0.00 | 36 | 1013.4 |
| 20260905205513 | 97 | 116 | 6.1 | 10.4 | 0.00 | 0.00 | 0.00 | 35 | 1013.5 |
| 20260905205016 | 97 | 130 | 6.1 | 10.4 | 0.00 | 0.00 | 0.00 | 35 | 1013.5 |
| 20260905204528 | 97 | 121 | 6.1 | 9.6 | 0.00 | 0.00 | 0.00 | 36 | 1013.6 |
| 20260905204004 | 97 | 143 | 5.2 | 10.4 | 0.00 | 0.00 | 0.00 | 35 | 1013.6 |
| 20260905203511 | 97 | 92 | 6.1 | 13.9 | 0.00 | 0.00 | 0.00 | 34 | 1013.6 |
| 20260905203018 | 97 | 87 | 7.0 | 13.9 | 0.00 | 0.00 | 0.00 | 34 | 1013.7 |
| 20260905202513 | 96 | 92 | 6.1 | 14.8 | 0.00 | 0.00 | 0.00 | 34 | 1013.6 |
| 20260905202016 | 97 | 126 | 6.1 | 14.8 | 0.00 | 0.00 | 0.00 | 33 | 1013.8 |
| 20260905201535 | 97 | 92 | 5.2 | 13.0 | 0.00 | 0.00 | 0.00 | 34 | 1013.8 |